Time,TemperatureF,DewpointF,PressureIn,WindDirection,WindDirectionDegrees,WindSpeedMPH,WindSpeedGustMPH,Humidity,HourlyPrecipIn,Conditions,Clouds,dailyrainin,SoftwareType,DateUTC
2013-06-05 00:00:00,58.7,49.3,30.11,NNE,25,0.0,2.0,71,0.00,,CLR,0.00,VWS V14.01,2013-06-05 04:00:00,
2013-06-05 00:15:00,58.7,48.6,30.11,NNE,24,0.0,3.0,69,0.00,,CLR,0.00,VWS V14.01,2013-06-05 04:15:00,
2013-06-05 00:30:00,58.6,48.5,30.11,NNE,24,0.0,0.0,69,0.00,,CLR,0.00,VWS V14.01,2013-06-05 04:30:00,
2013-06-05 00:45:00,58.3,48.2,30.11,NNE,31,0.0,3.0,69,0.00,,CLR,0.00,VWS V14.01,2013-06-05 04:45:00,
2013-06-05 01:00:00,57.6,48.3,30.11,North,0,0.0,0.0,71,0.00,,CLR,0.00,VWS V14.01,2013-06-05 05:00:00,
2013-06-05 01:15:00,57.0,48.1,30.10,North,0,0.0,1.0,72,0.00,,CLR,0.00,VWS V14.01,2013-06-05 05:15:00,
2013-06-05 01:30:00,56.7,47.4,30.09,NNE,13,1.0,5.0,71,0.00,,CLR,0.00,VWS V14.01,2013-06-05 05:30:00,
2013-06-05 01:45:00,56.9,47.2,30.09,NNE,18,0.0,3.0,70,0.00,,CLR,0.00,VWS V14.01,2013-06-05 05:45:00,
2013-06-05 02:00:00,56.6,46.9,30.09,NNE,14,0.0,5.0,70,0.00,,CLR,0.00,VWS V14.01,2013-06-05 06:00:00,
2013-06-05 02:15:00,56.3,46.7,30.09,NNE,28,1.0,1.0,70,0.00,,CLR,0.00,VWS V14.01,2013-06-05 06:15:00,
2013-06-05 02:30:00,55.9,46.7,30.09,NNE,17,0.0,4.0,71,0.00,,CLR,0.00,VWS V14.01,2013-06-05 06:30:00,
2013-06-05 02:45:00,55.6,46.7,30.09,NNE,16,0.0,0.0,72,0.00,,CLR,0.00,VWS V14.01,2013-06-05 06:45:00,
2013-06-05 03:00:00,55.0,46.5,30.09,NNE,16,0.0,0.0,73,0.00,,CLR,0.00,VWS V14.01,2013-06-05 07:00:00,
2013-06-05 03:15:00,54.5,46.8,30.09,NNE,16,0.0,0.0,75,0.00,,CLR,0.00,VWS V14.01,2013-06-05 07:15:00,
2013-06-05 03:30:00,54.1,46.7,30.09,NNE,16,0.0,0.0,76,0.00,,CLR,0.00,VWS V14.01,2013-06-05 07:30:00,
2013-06-05 03:45:00,53.5,46.5,30.08,NNE,16,0.0,0.0,77,0.00,,CLR,0.00,VWS V14.01,2013-06-05 07:45:00,
2013-06-05 04:00:00,53.1,46.8,30.08,NNE,16,0.0,0.0,79,0.00,,CLR,0.00,VWS V14.01,2013-06-05 08:00:00,
2013-06-05 04:15:00,52.8,46.8,30.08,NNE,16,0.0,0.0,80,0.00,,CLR,0.00,VWS V14.01,2013-06-05 08:15:00,
2013-06-05 04:30:00,52.8,46.8,30.07,NNE,16,0.0,0.0,80,0.00,,CLR,0.00,VWS V14.01,2013-06-05 08:30:00,
2013-06-05 04:45:00,52.9,46.6,30.08,NNE,16,0.0,0.0,79,0.00,,CLR,0.00,VWS V14.01,2013-06-05 08:45:00,
2013-06-05 05:00:00,53.2,46.9,30.09,NNE,16,0.0,0.0,79,0.00,,CLR,0.00,VWS V14.01,2013-06-05 09:00:00,
2013-06-05 05:15:00,52.9,47.2,30.08,NNE,16,0.0,0.0,81,0.00,,CLR,0.00,VWS V14.01,2013-06-05 09:15:00,
2013-06-05 05:30:00,52.8,46.8,30.08,NNE,16,0.0,0.0,80,0.00,,CLR,0.00,VWS V14.01,2013-06-05 09:30:00,
2013-06-05 05:45:00,52.9,46.9,30.07,NE,35,0.0,1.0,80,0.00,,CLR,0.00,VWS V14.01,2013-06-05 09:45:00,
2013-06-05 06:00:00,53.2,46.9,30.07,NNE,27,0.0,1.0,79,0.00,,CLR,0.00,VWS V14.01,2013-06-05 10:00:00,
2013-06-05 06:15:00,53.3,46.6,30.08,NNE,16,0.0,0.0,78,0.00,,CLR,0.00,VWS V14.01,2013-06-05 10:15:00,
2013-06-05 06:30:00,53.3,47.0,30.09,NNE,16,0.0,0.0,79,0.00,,CLR,0.00,VWS V14.01,2013-06-05 10:30:00,
2013-06-05 06:45:00,53.3,47.3,30.09,NNE,16,0.0,0.0,80,0.00,,CLR,0.00,VWS V14.01,2013-06-05 10:45:00,
2013-06-05 07:00:00,53.6,47.9,30.09,NNE,16,0.0,0.0,81,0.00,,CLR,0.00,VWS V14.01,2013-06-05 11:00:00,
2013-06-05 07:15:00,54.5,48.1,30.09,NNE,17,1.0,3.0,79,0.00,,CLR,0.00,VWS V14.01,2013-06-05 11:15:00,
2013-06-05 07:30:00,56.2,48.8,30.09,NNE,17,0.0,1.0,76,0.00,,CLR,0.00,VWS V14.01,2013-06-05 11:30:00,
2013-06-05 07:45:00,57.6,49.0,30.09,NNE,31,0.0,0.0,73,0.00,,CLR,0.00,VWS V14.01,2013-06-05 11:45:00,
2013-06-05 08:00:00,58.6,49.6,30.08,NNE,18,0.0,4.0,72,0.00,,CLR,0.00,VWS V14.01,2013-06-05 12:00:00,
2013-06-05 08:15:00,59.9,49.7,30.08,NNE,20,0.0,0.0,69,0.00,,CLR,0.00,VWS V14.01,2013-06-05 12:15:00,
2013-06-05 08:30:00,62.1,50.6,30.08,ENE,65,5.0,5.0,66,0.00,,CLR,0.00,VWS V14.01,2013-06-05 12:30:00,
2013-06-05 08:45:00,64.2,50.5,30.07,ENE,73,0.0,5.0,61,0.00,,CLR,0.00,VWS V14.01,2013-06-05 12:45:00,
2013-06-05 09:00:00,65.8,52.0,30.07,NE,48,0.0,2.0,61,0.00,,CLR,0.00,VWS V14.01,2013-06-05 13:00:00,
2013-06-05 09:15:00,66.8,51.6,30.07,ENE,73,0.0,5.0,58,0.00,,CLR,0.00,VWS V14.01,2013-06-05 13:15:00,
2013-06-05 09:30:00,68.8,53.0,30.07,ENE,76,0.0,3.0,57,0.00,,CLR,0.00,VWS V14.01,2013-06-05 13:30:00,
2013-06-05 09:45:00,69.8,52.4,30.06,ENE,61,0.0,0.0,54,0.00,,CLR,0.00,VWS V14.01,2013-06-05 13:45:00,
2013-06-05 10:00:00,69.8,52.4,30.06,NNE,25,0.0,1.0,54,0.00,,CLR,0.00,VWS V14.01,2013-06-05 14:00:00,
2013-06-05 10:15:00,70.6,51.1,30.06,SE,130,0.0,0.0,50,0.00,,CLR,0.00,VWS V14.01,2013-06-05 14:15:00,
2013-06-05 10:30:00,71.1,53.1,30.06,NE,52,5.0,5.0,53,0.00,,CLR,0.00,VWS V14.01,2013-06-05 14:30:00,
2013-06-05 10:45:00,73.9,52.4,30.05,NE,48,0.0,6.0,47,0.00,,CLR,0.00,VWS V14.01,2013-06-05 14:45:00,
2013-06-05 11:00:00,74.6,54.2,30.04,East,83,2.0,6.0,49,0.00,,CLR,0.00,VWS V14.01,2013-06-05 15:00:00,
2013-06-05 11:15:00,72.8,51.4,30.03,ENE,69,0.0,4.0,47,0.00,,CLR,0.00,VWS V14.01,2013-06-05 15:15:00,
2013-06-05 11:30:00,74.0,52.5,30.02,East,80,0.0,1.0,47,0.00,,CLR,0.00,VWS V14.01,2013-06-05 15:30:00,
2013-06-05 11:45:00,74.7,54.3,30.02,ENE,66,0.0,1.0,49,0.00,,CLR,0.00,VWS V14.01,2013-06-05 15:45:00,
2013-06-05 12:00:00,76.7,55.0,30.00,East,95,2.0,6.0,47,0.00,,CLR,0.00,VWS V14.01,2013-06-05 16:00:00,
2013-06-05 12:15:00,77.7,52.8,29.99,East,79,0.0,5.0,42,0.00,,CLR,0.00,VWS V14.01,2013-06-05 16:15:00,
2013-06-05 12:30:00,78.5,54.2,29.98,North,11,0.0,3.0,43,0.00,,CLR,0.00,VWS V14.01,2013-06-05 16:30:00,
2013-06-05 12:45:00,78.6,53.0,29.99,NNE,32,0.0,7.0,41,0.00,,CLR,0.00,VWS V14.01,2013-06-05 16:45:00,
2013-06-05 13:00:00,78.3,55.8,29.98,ENE,64,0.0,6.0,46,0.00,,CLR,0.00,VWS V14.01,2013-06-05 17:00:00,
2013-06-05 13:15:00,77.9,54.3,29.98,East,88,0.0,6.0,44,0.00,,CLR,0.00,VWS V14.01,2013-06-05 17:15:00,
2013-06-05 13:30:00,79.0,55.2,29.98,East,92,0.0,4.0,44,0.00,,CLR,0.00,VWS V14.01,2013-06-05 17:30:00,
2013-06-05 13:45:00,79.2,57.2,29.98,ENE,76,0.0,1.0,47,0.00,,CLR,0.00,VWS V14.01,2013-06-05 17:45:00,
2013-06-05 14:00:00,80.3,59.4,29.98,NNE,18,0.0,5.0,49,0.00,,CLR,0.00,VWS V14.01,2013-06-05 18:00:00,
2013-06-05 14:15:00,82.2,57.5,29.98,West,274,0.0,2.0,43,0.00,,CLR,0.00,VWS V14.01,2013-06-05 18:15:00,
2013-06-05 14:30:00,82.0,58.6,29.97,NNE,27,0.0,1.0,45,0.00,,CLR,0.00,VWS V14.01,2013-06-05 18:30:00,
2013-06-05 14:45:00,82.0,58.0,29.97,NNE,28,0.0,1.0,44,0.00,,CLR,0.00,VWS V14.01,2013-06-05 18:45:00,
2013-06-05 15:00:00,81.6,57.0,29.96,NE,52,0.0,0.0,43,0.00,,CLR,0.00,VWS V14.01,2013-06-05 19:00:00,
2013-06-05 15:15:00,83.4,60.5,29.95,NE,42,0.0,5.0,46,0.00,,CLR,0.00,VWS V14.01,2013-06-05 19:15:00,
2013-06-05 15:30:00,82.0,57.3,29.95,ENE,75,0.0,0.0,43,0.00,,CLR,0.00,VWS V14.01,2013-06-05 19:30:00,
2013-06-05 15:45:00,81.8,58.4,29.95,NE,41,0.0,0.0,45,0.00,,CLR,0.00,VWS V14.01,2013-06-05 19:45:00,
2013-06-05 16:00:00,81.1,57.8,29.94,NNE,20,0.0,0.0,45,0.00,,CLR,0.00,VWS V14.01,2013-06-05 20:00:00,
2013-06-05 16:15:00,80.7,56.8,29.94,NNE,20,0.0,0.0,44,0.00,,SCT060,0.00,VWS V14.01,2013-06-05 20:15:00,
2013-06-05 16:30:00,79.8,57.8,29.94,NE,51,0.0,1.0,47,0.00,,SCT060,0.00,VWS V14.01,2013-06-05 20:30:00,
2013-06-05 16:45:00,80.3,60.5,29.93,NE,51,0.0,0.0,51,0.00,,SCT060,0.00,VWS V14.01,2013-06-05 20:45:00,
2013-06-05 17:00:00,81.2,60.2,29.92,East,80,0.0,0.0,49,0.00,,SCT060,0.00,VWS V14.01,2013-06-05 21:00:00,
2013-06-05 17:15:00,81.1,59.6,29.92,East,80,0.0,0.0,48,0.00,,BKN075,0.00,VWS V14.01,2013-06-05 21:15:00,
2013-06-05 17:30:00,81.1,59.0,29.92,ENE,78,0.0,0.0,47,0.00,,BKN075,0.00,VWS V14.01,2013-06-05 21:30:00,
2013-06-05 17:45:00,81.6,60.0,29.91,SSE,150,0.0,1.0,48,0.00,,BKN075,0.00,VWS V14.01,2013-06-05 21:45:00,
2013-06-05 18:00:00,82.6,59.8,29.91,SSE,150,0.0,0.0,46,0.00,,BKN075,0.00,VWS V14.01,2013-06-05 22:00:00,
2013-06-05 18:15:00,82.4,60.2,29.90,SE,141,0.0,0.0,47,0.00,,BKN060,0.00,VWS V14.01,2013-06-05 22:15:00,
2013-06-05 18:30:00,81.2,59.7,29.89,NE,40,0.0,0.0,48,0.00,,BKN060,0.00,VWS V14.01,2013-06-05 22:30:00,
2013-06-05 18:45:00,79.8,60.6,29.89,NE,40,0.0,0.0,52,0.00,,BKN060,0.00,VWS V14.01,2013-06-05 22:45:00,
2013-06-05 19:00:00,79.6,61.0,29.89,NE,40,0.0,0.0,53,0.00,,BKN060,0.00,VWS V14.01,2013-06-05 23:00:00,
2013-06-05 19:15:00,79.8,60.6,29.88,NE,40,0.0,0.0,52,0.00,,CLR,0.00,VWS V14.01,2013-06-05 23:15:00,
2013-06-05 19:30:00,79.2,61.1,29.87,NE,40,0.0,0.0,54,0.00,,CLR,0.00,VWS V14.01,2013-06-05 23:30:00,
2013-06-05 19:45:00,78.8,61.8,29.87,NE,40,0.0,0.0,56,0.00,,CLR,0.00,VWS V14.01,2013-06-05 23:45:00,
2013-06-05 20:00:00,78.3,61.3,29.88,NE,41,0.0,0.0,56,0.00,,CLR,0.00,VWS V14.01,2013-06-06 00:00:00,
2013-06-05 20:15:00,77.9,62.4,29.87,NE,41,0.0,0.0,59,0.00,,CLR,0.00,VWS V14.01,2013-06-06 00:15:00,
2013-06-05 20:30:00,77.0,62.1,29.87,NE,41,0.0,0.0,60,0.00,,CLR,0.00,VWS V14.01,2013-06-06 00:30:00,
2013-06-05 20:45:00,76.1,61.7,29.87,NE,41,0.0,0.0,61,0.00,,CLR,0.00,VWS V14.01,2013-06-06 00:45:00,
2013-06-05 21:00:00,75.6,61.7,29.87,NE,40,0.0,0.0,62,0.00,,CLR,0.00,VWS V14.01,2013-06-06 01:00:00,
2013-06-05 21:15:00,74.7,61.7,29.87,NE,40,0.0,0.0,64,0.00,,FEW080,0.00,VWS V14.01,2013-06-06 01:15:00,
2013-06-05 21:30:00,74.0,61.9,29.86,NE,40,0.0,0.0,66,0.00,,FEW080,0.00,VWS V14.01,2013-06-06 01:30:00,
2013-06-05 21:45:00,73.5,62.3,29.87,NE,40,0.0,0.0,68,0.00,,FEW080,0.00,VWS V14.01,2013-06-06 01:45:00,
2013-06-05 22:00:00,72.8,62.0,29.86,NE,40,0.0,0.0,69,0.00,,FEW080,0.00,VWS V14.01,2013-06-06 02:00:00,
2013-06-05 22:15:00,72.3,64.7,29.86,NE,40,0.0,0.0,77,0.00,,FEW080,0.00,VWS V14.01,2013-06-06 02:15:00,
2013-06-05 22:30:00,71.3,65.2,29.86,NE,40,0.0,0.0,81,0.00,,FEW080,0.00,VWS V14.01,2013-06-06 02:30:00,
2013-06-05 22:45:00,70.3,64.6,29.86,NE,40,0.0,0.0,82,0.00,,SCT110,0.00,VWS V14.01,2013-06-06 02:45:00,
2013-06-05 23:00:00,69.9,65.2,29.86,NE,40,0.0,0.0,85,0.00,,SCT110,0.00,VWS V14.01,2013-06-06 03:00:00,
2013-06-05 23:15:00,69.3,64.9,29.86,NE,40,0.0,0.0,86,0.01,,SCT110,0.01,VWS V14.01,2013-06-06 03:15:00,
2013-06-05 23:30:00,68.8,64.8,29.86,NE,40,0.0,0.0,87,0.01,,SCT110,0.01,VWS V14.01,2013-06-06 03:30:00,
2013-06-05 23:45:00,68.6,64.9,29.87,NE,40,0.0,0.0,88,0.01,,-RA,0.01,VWS V14.01,2013-06-06 03:45:00,